Notices

What's New in latest Release from April 7th, 2021:

- Updated Glossary, including Speed of Maximum Gust, and Total Hourly Precipitation

- Updated national and regional climate services offices contacts and prices information

- Addition of station inventory lists for 1981-2010, 1971-2000, and 1961-1990 Normals.

If you haven't already, please take our survey and provide feedback about our website: https://eccc.sondage-survey.ca/f/LanguageSelection.aspx?s=442ca660-fcf1-47c0-95a9-59707d6fd709

Hourly Data Report for November 25, 2006

TORONTO CITY
ONTARIO

43°40'00.000" N
79°24'00.000" W
112.50 m
6158355
71508
XTO

Download Data

Hourly Data (November 2006)
Hourly Data Report for November 25, 2006
TIME
LST
Temp Definition
°C
Dew Point Definition
°C
Rel Hum Definition
%
Precip. Amount Definition
mm

Wind Dir Definition
10's deg

Wind Spd Definition
km/h
Visibility Definition
km
Stn Press Definition
kPa
Hmdx Definition


Wind Chill Definition


Weather Definition


00:00 5.5 4.7 95   LegendMM LegendMM   101.08     LegendNANA
01:00 5.4 4.1 91   LegendMM LegendMM   101.03     LegendNANA
02:00 5.4 3.9 90   LegendMM LegendMM   101.02     LegendNANA
03:00 5.4 3.4 87   LegendMM LegendMM   101.04     LegendNANA
04:00 5.1 3.9 92   LegendMM LegendMM   101.06     LegendNANA
05:00 5.0 4.3 95   LegendMM LegendMM   101.02     LegendNANA
06:00 3.6 3.0 96   LegendMM LegendMM   101.01     LegendNANA
07:00 3.9 3.4 97   LegendMM LegendMM   101.00     LegendNANA
08:00 3.3 2.7 96   LegendMM LegendMM   101.03     LegendNANA
09:00 3.8 3.4 97   LegendMM LegendMM   101.03     LegendNANA
10:00 4.0 3.8 99   LegendMM LegendMM   101.03     LegendNANA
11:00 6.1 5.6 97   LegendMM LegendMM   101.00     LegendNANA
12:00 7.1 4.9 86   LegendMM LegendMM   100.93     LegendNANA
13:00 7.5 4.4 81   LegendMM LegendMM   100.86     LegendNANA
14:00 7.9 4.0 76   LegendMM LegendMM   100.79     LegendNANA
15:00 8.0 3.7 74   LegendMM LegendMM   100.76     LegendNANA
16:00 7.4 2.5 71   LegendMM LegendMM   100.75     LegendNANA
17:00 8.0 2.3 67   LegendMM LegendMM   100.75     LegendNANA
18:00 7.5 2.4 70   LegendMM LegendMM   100.77     LegendNANA
19:00 8.1 2.2 66   LegendMM LegendMM   100.78     LegendNANA
20:00 8.4 3.3 70   LegendMM LegendMM   100.76     LegendNANA
21:00 7.9 4.4 79   LegendMM LegendMM   100.75     LegendNANA
22:00 7.6 4.0 78   LegendMM LegendMM   100.75     LegendNANA
23:00 6.9 4.2 83   LegendMM LegendMM   100.70     LegendNANA

Notes on Data Quality.

Legend

  • E = Estimated
  • M = Missing
  • NA = Not Available*
  • [empty] = Indicates an unobserved value
Date modified: